CGAS EGHQ-EGTK

Flight info

Callsign CGAS
Flight time N/A
Altitude 25000
Route EXMOR DCT CONKO
Aircraft PC12/L-SDFGRWY/S

Departure

Time 2026-04-21 20:23
Airport Cornwall Airport Newquay (EGHQ)

Arrival

Time N/A
Airport London Oxford Airport (EGTK)
Time Latitude Longitude Altitude Speed Heading
2026-04-21 19:16 50.44679 -5.00445 320 ft 0 kts 130°
2026-04-21 20:17 50.44676 -5.00439 321 ft 4 kts 130°
2026-04-21 20:18 50.44657 -5.00386 323 ft 13 kts 108°
2026-04-21 20:18 50.44649 -5.00344 323 ft 0 kts 117°
2026-04-21 20:18 50.44622 -5.00323 325 ft 11 kts 251°
2026-04-21 20:18 50.44659 -5.00483 320 ft 19 kts 298°
2026-04-21 20:19 50.44685 -5.00616 318 ft 17 kts 300°
2026-04-21 20:19 50.44773 -5.00845 313 ft 21 kts 300°
2026-04-21 20:19 50.44791 -5.00894 311 ft 1 kts 302°
2026-04-21 20:19 50.44809 -5.00970 310 ft 15 kts 272°
2026-04-21 20:20 50.44784 -5.01093 308 ft 6 kts 234°
2026-04-21 20:20 50.44782 -5.01097 308 ft 0 kts 229°
2026-04-21 20:21 50.44782 -5.01098 308 ft 1 kts 229°
2026-04-21 20:21 50.44774 -5.01110 307 ft 2 kts 222°
2026-04-21 20:21 50.44726 -5.01157 306 ft 9 kts 216°
2026-04-21 20:21 50.44684 -5.01150 307 ft 8 kts 120°
2026-04-21 20:22 50.44664 -5.01095 308 ft 0 kts 120°
2026-04-21 20:22 50.44480 -5.00606 320 ft 80 kts 121°
2026-04-21 20:22 50.44112 -4.99629 352 ft 123 kts 120°
2026-04-21 20:23 50.43636 -4.98374 640 ft 144 kts 122°
2026-04-21 20:23 50.43098 -4.96989 1118 ft 149 kts 121°
2026-04-21 20:23 50.42610 -4.95612 1825 ft 141 kts 118°
2026-04-21 20:23 50.42246 -4.94150 2339 ft 148 kts 97°
2026-04-21 20:24 50.42418 -4.92549 2840 ft 155 kts 65°
2026-04-21 20:24 50.42804 -4.91599 3181 ft 155 kts 53°
2026-04-21 20:24 50.43592 -4.90553 3838 ft 148 kts 29°
2026-04-21 20:24 50.44843 -4.89590 4604 ft 158 kts 20°
2026-04-21 20:25 50.45864 -4.89056 5434 ft 150 kts 13°
2026-04-21 20:25 50.46853 -4.88703 6257 ft 147 kts 11°
2026-04-21 20:25 50.47928 -4.88391 6738 ft 166 kts
2026-04-21 20:25 50.49057 -4.88298 7578 ft 155 kts 356°
2026-04-21 20:26 50.49750 -4.88445 8166 ft 151 kts 345°
2026-04-21 20:26 50.50754 -4.89162 8651 ft 170 kts 323°
2026-04-21 20:26 50.51865 -4.89881 9184 ft 177 kts
2026-04-21 20:26 50.52995 -4.89610 10209 ft 158 kts
2026-04-21 20:27 50.54543 -4.89179 10848 ft 182 kts
2026-04-21 20:27 50.55821 -4.88808 11411 ft 191 kts 13°
2026-04-21 20:27 50.56612 -4.88142 11773 ft 197 kts 44°
2026-04-21 20:27 50.57346 -4.85511 12526 ft 204 kts 75°
2026-04-21 20:28 50.57589 -4.84068 12898 ft 207 kts 76°
2026-04-21 20:28 50.57955 -4.81857 13453 ft 211 kts 76°
2026-04-21 20:28 50.58336 -4.79602 14013 ft 214 kts 76°
2026-04-21 20:28 50.58722 -4.77322 14560 ft 217 kts 76°
2026-04-21 20:29 50.59115 -4.75015 15110 ft 220 kts 76°
2026-04-21 20:29 50.59512 -4.72679 15658 ft 222 kts 76°
2026-04-21 20:29 50.59937 -4.70333 16190 ft 224 kts 69°
2026-04-21 20:29 50.60754 -4.68274 16710 ft 226 kts 53°
2026-04-21 20:30 50.61738 -4.66333 17257 ft 227 kts 52°
2026-04-21 20:30 50.62695 -4.64355 17809 ft 227 kts 55°
2026-04-21 20:30 50.63591 -4.62307 18355 ft 227 kts 57°
2026-04-21 20:30 50.64479 -4.60252 18897 ft 227 kts 56°
2026-04-21 20:31 50.65375 -4.58209 19440 ft 227 kts 56°
2026-04-21 20:31 50.66275 -4.56161 19982 ft 228 kts 56°
2026-04-21 20:31 50.67178 -4.54108 20525 ft 228 kts 56°
2026-04-21 20:31 50.68068 -4.52078 21061 ft 228 kts 56°
2026-04-21 20:32 50.68969 -4.50020 21617 ft 228 kts 56°
2026-04-21 20:32 50.69880 -4.47941 22152 ft 227 kts 56°
2026-04-21 20:32 50.70760 -4.45928 22683 ft 225 kts 56°
2026-04-21 20:32 50.71646 -4.43902 23221 ft 223 kts 56°
2026-04-21 20:33 50.72524 -4.41894 23758 ft 222 kts 56°
2026-04-21 20:33 50.73396 -4.39897 24294 ft 220 kts 56°
2026-04-21 20:33 50.74261 -4.37913 24831 ft 219 kts 56°
2026-04-21 20:33 50.75121 -4.35942 25368 ft 217 kts 56°
2026-04-21 20:34 50.75974 -4.33983 25905 ft 216 kts 56°
2026-04-21 20:34 50.76822 -4.32036 26440 ft 215 kts 57°
2026-04-21 20:34 50.77657 -4.30118 26972 ft 215 kts 57°
2026-04-21 20:34 50.78505 -4.28164 27516 ft 217 kts 57°
2026-04-21 20:35 50.79363 -4.26189 28062 ft 220 kts 57°
2026-04-21 20:35 50.80233 -4.24182 28611 ft 224 kts 57°
2026-04-21 20:35 50.81135 -4.22097 28971 ft 238 kts 57°
2026-04-21 20:35 50.82118 -4.19822 29028 ft 263 kts 57°
2026-04-21 20:36 50.83188 -4.17352 29133 ft 281 kts 56°
2026-04-21 20:36 50.84302 -4.14776 29220 ft 295 kts 56°
2026-04-21 20:36 50.86661 -4.09303 29215 ft 303 kts 56°
2026-04-21 20:37 50.87843 -4.06561 29208 ft 297 kts 57°
2026-04-21 20:37 50.88979 -4.03922 29194 ft 283 kts 57°
2026-04-21 20:37 50.90074 -4.01378 29189 ft 277 kts 57°
2026-04-21 20:37 50.91159 -3.98855 29191 ft 278 kts 57°
2026-04-21 20:38 50.92250 -3.96313 29194 ft 280 kts 57°
2026-04-21 20:38 50.93331 -3.93791 29195 ft 281 kts 57°
2026-04-21 20:38 50.94430 -3.91225 29195 ft 281 kts 57°
2026-04-21 20:38 50.95527 -3.88662 29193 ft 282 kts 57°
2026-04-21 20:39 50.96636 -3.86071 29193 ft 285 kts 57°
2026-04-21 20:39 50.97755 -3.83450 29200 ft 287 kts 57°
2026-04-21 20:39 50.98874 -3.80827 29202 ft 288 kts 57°
2026-04-21 20:39 51.00001 -3.78183 29198 ft 289 kts 57°
2026-04-21 20:40 51.01124 -3.75546 29211 ft 289 kts 57°
2026-04-21 20:40 51.02251 -3.72896 29222 ft 290 kts 57°
2026-04-21 20:40 51.03375 -3.70251 29228 ft 288 kts 57°
2026-04-21 20:40 51.04492 -3.67620 29228 ft 287 kts 57°
2026-04-21 20:41 51.05593 -3.65025 29228 ft 287 kts 57°
2026-04-21 20:41 51.06707 -3.62395 29227 ft 286 kts 57°
2026-04-21 20:41 51.07818 -3.59772 29226 ft 286 kts 57°
2026-04-21 20:41 51.08926 -3.57151 29225 ft 286 kts 57°
2026-04-21 20:42 51.10033 -3.54530 29221 ft 285 kts 57°
2026-04-21 20:42 51.11137 -3.51914 29217 ft 284 kts 57°
2026-04-21 20:42 51.12239 -3.49300 29203 ft 284 kts 57°
2026-04-21 20:42 51.13335 -3.46697 29196 ft 282 kts 57°
2026-04-21 20:43 51.14408 -3.44147 29180 ft 280 kts 57°
2026-04-21 20:43 51.15491 -3.41569 29062 ft 282 kts 57°
2026-04-21 20:43 51.16584 -3.38965 28724 ft 282 kts 57°
2026-04-21 20:43 51.17662 -3.36393 28358 ft 276 kts 58°
2026-04-21 20:44 51.18610 -3.33743 27997 ft 276 kts 63°
2026-04-21 20:44 51.19522 -3.31039 27628 ft 278 kts 63°
2026-04-21 20:44 51.20442 -3.28332 27261 ft 278 kts 62°
2026-04-21 20:44 51.21366 -3.25626 26892 ft 278 kts 62°
2026-04-21 20:45 51.22290 -3.22911 26521 ft 279 kts 62°
2026-04-21 20:45 51.23199 -3.20230 26155 ft 279 kts 62°
2026-04-21 20:45 51.24125 -3.17498 25784 ft 281 kts 62°
2026-04-21 20:45 51.25054 -3.14754 25411 ft 281 kts 62°
2026-04-21 20:46 51.25983 -3.12010 25035 ft 281 kts 62°
2026-04-21 20:46 51.26912 -3.09259 24661 ft 282 kts 63°
2026-04-21 20:46 51.27842 -3.06505 24285 ft 282 kts 63°